Location: ???? ?????
(31.2790°N, 31.6955°E)
Time: 22:13:43
(UTC+00:00)

Daily predictions for brighter satellites

Satellite Brightness Start Highest point End
(mag) Time Altitude Azimuth Time Altitude Azimuth Time Altitude Azimuth
Cosmos 1844 Rocket 2.9 17:06:50 10° S 17:12:17 51° ESE 17:17:46 10° NNE
Meteor 1-11 Rocket 4.2 17:07:00 10° N 17:12:18 42° ENE 17:17:31 10° SSE
Cosmos 1812 3.1 17:11:46 10° SSW 17:15:34 70° W 17:19:23 10° N
STARLINK-1231 4.2 17:12:19 10° SSW 17:16:07 36° SE 17:19:55 10° ENE
YAOGAN 1 4.4 17:13:29 10° SSW 17:17:23 33° W 17:21:18 10° NNW
Cosmos 1707 Rocket 3.9 17:15:11 10° SSW 17:19:30 71° W 17:23:49 10° N
STARLINK-1232 4.0 17:17:10 10° SSW 17:21:04 41° SE 17:24:57 10° ENE
Cosmos 405 4.0 17:18:28 10° SSW 17:21:50 50° W 17:25:12 10° N
Cosmos 1869 Rocket 4.2 17:18:40 10° NNW 17:22:58 60° W 17:27:12 10° S
Cosmos 1536 3.8 17:20:58 10° NNE 17:24:34 30° E 17:28:10 10° SE
STARLINK-1208 3.8 17:22:03 10° SSW 17:26:01 46° SE 17:29:59 10° NE
Cosmos 1666 3.5 17:24:10 10° NNE 17:27:40 32° E 17:31:07 10° SE
OAO 2 Rocket 4.4 17:23:22 10° W 17:28:14 36° SSW 17:33:04 10° SE
USA 229 DEB 3.5 17:21:57 10° SSW 17:28:17 69° ESE 17:34:55 10° NE
USA 229 3.5 17:22:05 10° SSW 17:28:25 68° ESE 17:35:01 10° NE
STARLINK-1271 3.7 17:26:58 10° SSW 17:30:59 53° SE 17:35:00 10° NE
Cosmos 2084 Rocket 3.4 17:27:04 10° SSW 17:31:17 87° ESE 17:35:35 10° NNE
Cosmos 1862 Rocket 3.5 17:28:38 10° S 17:33:02 69° E 17:37:26 10° NNE
SJ-6B 3.1 17:29:34 10° SSE 17:33:10 44° ENE 17:36:45 10° N
SPOT 3 Rocket 4.5 17:30:21 10° SE 17:34:46 31° ENE 17:39:14 10° N
Cosmos 1844 3.7 17:29:47 10° S 17:35:19 66° ESE 17:40:57 10° NNE
STARLINK-1154 3.6 17:31:53 10° SSW 17:35:57 60° SE 17:40:01 10° NE
NOSS 3-1 (C) 3.1 17:31:29 10° SSW 17:36:41 87° ESE 17:42:32 10° NNE
FREGAT/IRIS 2.2 17:34:46 10° SSE 17:37:24 73° E 17:40:04 10° N
Meteor 1-27 Rocket 4.1 17:31:44 10° SSW 17:37:39 76° W 17:43:33 10° N
NOSS 3-1 (A) 3.3 17:32:47 10° S 17:37:46 47° ESE 17:43:16 10° NE
Cosmos 1733 Rocket 3.2 17:34:28 10° N 17:38:45 53° E 17:42:58 10° SSE
STARLINK-1132 4.4 17:34:58 10° NNW 17:38:51 39° NE 17:42:00 14° ESE
Okean 1-7 4.4 17:38:14 13° SE 17:40:43 21° E 17:43:56 10° NE
STARLINK-1197 3.5 17:36:49 10° SSW 17:40:54 68° SE 17:45:01 10° NE
NOSS 2 (A) 4.3 17:38:53 10° NW 17:41:11 59° WSW 17:43:04 14° SSE
Meteor 2-11 Rocket 4.4 17:36:37 10° N 17:42:43 75° E 17:48:46 10° S
MOS 1 Rocket 3.0 17:38:46 10° NNE 17:43:10 73° E 17:47:26 10° S
STARLINK-1177 4.3 17:39:54 10° NNW 17:43:51 43° NE 17:46:48 16° ESE
STARLINK-1198 3.5 17:41:44 10° SW 17:45:51 77° SE 17:49:59 10° NE
Cosmos 44 4.0 17:41:32 10° NW 17:46:12 53° WSW 17:51:06 10° S
Resurs 01 Rocket 3.1 17:44:08 15° ESE 17:46:30 22° ENE 17:49:53 10° NNE
H-2A R/B 2.4 17:42:01 10° S 17:46:54 63° W 17:51:55 10° NNW
CZ-2C R/B 3.6 17:42:26 10° S 17:47:34 63° W 17:53:03 10° NNW
STARLINK-1167 4.1 17:44:50 10° NNW 17:48:51 48° NE 17:51:35 19° ESE
NOSS 2-3 (C) 3.7 17:45:09 10° S 17:49:07 46° ESE 17:53:21 10° NE
MOS 1 4.3 17:43:56 10° SSE 17:49:37 85° ENE 17:55:21 10° NNW
STARLINK-1199 3.5 17:46:44 10° SW 17:50:51 87° SE 17:55:00 10° NE
MONITOR-E 3.7 17:49:47 15° S 17:51:48 81° W 17:54:21 10° NNW
Hubble Space Telescope 1.0 17:48:06 10° WSW 17:52:07 50° S 17:54:51 19° ESE
STARLINK-1168 3.9 17:49:45 10° NNW 17:53:49 54° NE 17:56:21 21° ESE
Cosmos 1464 Rocket 4.1 17:47:34 10° N 17:53:53 63° E 18:00:00 11° SSE
STARLINK-1210 3.6 17:51:41 10° SW 17:55:48 83° NW 17:59:57 10° NE
USA 186 2.6 17:54:22 10° SSW 17:56:29 33° W 17:58:42 10° NNW
Meteor 1-4 Rocket 4.5 17:58:46 14° ENE 17:58:46 14° ENE 18:00:02 10° NE
STARLINK-1164 3.8 17:54:43 10° NW 17:58:49 61° NE 18:01:09 24° ESE
STARLINK-1219 3.8 17:56:40 10° SW 18:00:47 74° NW 18:04:55 10° NE
STARLINK-1182 3.7 17:59:41 10° NW 18:03:48 69° NE 18:05:56 27° ESE
Cosmos 1371 Rocket 4.2 18:00:12 10° S 18:05:16 49° ESE 18:10:19 10° NNE
STARLINK-1211 4.0 18:01:39 10° SW 18:05:45 66° NW 18:09:51 10° NE
Cosmos 1703 Rocket 3.7 18:03:43 17° SSE 18:06:53 52° E 18:11:05 10° NNE
GOES 2 Rocket 4.0 17:59:15 10° W 18:07:02 70° S 18:11:05 21° ESE
STARLINK-1163 3.6 18:04:38 10° NW 18:08:47 77° NE 18:10:43 30° SE
Delta 128 4.1 18:04:09 10° WSW 18:10:08 60° S 18:13:15 24° ESE
STARLINK-1245 4.2 18:06:41 10° SW 18:10:45 58° NW 18:14:49 10° NE
STARLINK-1172 3.5 18:09:37 10° NW 18:13:46 87° NE 18:15:31 34° SE
STARLINK-1233 4.5 18:11:42 10° WSW 18:15:43 52° NW 18:19:45 10° NNE
OAO 3 Copernicus 4.3 18:12:19 10° WNW 18:17:23 78° NNE 18:20:09 27° E
Cosmos 2251 Rocket 3.6 18:12:36 10° NNW 18:17:50 78° WSW 18:21:24 21° S
Delta 198 4.2 18:14:56 10° SW 18:18:21 27° S 18:18:21 27° S
STARLINK-1145 3.5 18:14:35 10° NW 18:18:44 83° SW 18:20:17 37° SE
Gbstr 26 Del rocket 4.3 18:12:12 10° NW 18:20:16 86° NE 18:24:30 28° SE
Tsikada Rocket 3.9 18:14:13 10° S 18:20:25 72° E 18:26:34 10° N
MetOp-A 4.2 18:17:52 17° S 18:22:06 76° WSW 18:27:28 10° NNW
Cosmos 1743 2.9 18:19:11 10° N 18:22:54 51° E 18:23:34 44° ESE
STARLINK-1161 3.6 18:19:32 10° NW 18:23:41 74° SW 18:25:02 40° SSE
BREEZE-M DEB (TANK) 4.4 18:22:32 10° N 18:24:17 18° NE 18:24:21 18° NE
Spot 2 Rocket 4.5 18:24:56 27° E 18:26:06 29° ENE 18:30:26 10° NNE
Cosmos 1908 Rocket 3.5 18:22:36 10° N 18:27:02 71° E 18:28:42 37° SSE
DELTA 2 R/B (1) 4.3 18:22:10 10° WNW 18:27:23 42° SW 18:29:40 28° SSE
DNEPR-1 R/B 3.9 18:22:25 10° NNW 18:28:15 84° ENE 18:30:16 37° SSE
SAR-Lupe-2 4.3 18:25:07 10° NNE 18:27:54 35° ENE 18:27:54 35° ENE
Resurs 1-3 3.7 18:26:09 27° S 18:28:31 76° WSW 18:32:54 10° NNW
STARLINK-1160 3.7 18:24:32 10° NW 18:28:38 66° SW 18:29:49 43° SSE
STARLINK-1170 3.9 18:29:33 10° NW 18:33:37 57° SW 18:34:37 43° S
Cosmos 2056 Rocket 3.3 18:29:03 11° SSW 18:33:55 82° ESE 18:39:02 10° NNE
CZ-2C R/B 3.9 18:30:21 10° N 18:35:37 43° WNW 18:40:53 10° SW
Myojo/LAPS 4.3 18:32:26 10° W 18:36:37 29° SSW 18:36:39 29° SSW
Cosmos 1975 3.6 18:33:03 10° NNE 18:36:35 36° ENE 18:36:35 36° ENE
SEDSat Delta rocket 3.9 18:30:29 10° W 18:37:18 88° N 18:40:56 28° E
STARLINK-1150 4.1 18:34:34 10° NW 18:38:34 50° SW 18:39:24 42° SSW
H-2A R/B 2.4 18:35:58 10° W 18:38:49 41° S 18:40:02 36° SSE
Cosmos 389 Rocket 3.9 18:36:35 13° SW 18:39:16 35° W 18:42:29 10° NNW
Okean 1 4.0 18:36:44 17° SSW 18:39:39 52° W 18:43:36 10° N
Meteor 1-19 Rocket 4.1 18:36:26 21° S 18:40:16 87° E 18:45:58 10° N
Iridium 51 4.3 18:42:39 58° SSE 18:43:24 77° E 18:47:24 10° N
STARLINK-1151 4.2 18:39:36 10° NW 18:43:33 44° SW 18:44:12 41° SSW
ATLAS 3B CENTAUR R/B 3.4 18:32:23 10° SW 18:44:08 37° SSE 18:45:38 35° SE
Cosmos 2278 Rocket 2.1 18:42:23 29° S 18:45:16 65° ESE 18:50:54 10° NNE
STARLINK-1133 4.4 18:44:37 10° WNW 18:48:30 39° SW 18:48:58 38° SW
Cosmos 44 Rocket 3.2 18:47:54 10° NNW 18:52:50 89° ENE 18:53:44 61° SSE
Terra 3.7 18:59:38 17° ENE 18:59:38 17° ENE 19:02:05 10° NNE
STARLINK-1165 4.4 18:56:54 10° NNW 19:00:42 41° NE 19:00:42 41° NE
Cosmos 1356 4.4 19:01:13 10° NNW 19:03:48 46° NNW 19:03:48 46° NNW
Cosmos 1452 Rocket 3.9 19:05:40 46° ENE 19:05:40 46° ENE 19:09:59 10° NNE
STARLINK-1169 4.3 19:01:50 10° NNW 19:05:29 45° NNE 19:05:29 45° NNE
IGS 5A 3.8 19:07:44 55° NNE 19:07:44 55° NNE 19:11:12 10° N
STARLINK-1178 4.3 19:06:45 10° NNW 19:10:15 48° NNE 19:10:15 48° NNE
Okean 3 3.6 19:11:28 71° N 19:11:28 71° N 19:15:19 10° N
Cosmos 1420 Rocket 3.9 19:10:51 64° SSW 19:11:42 88° WNW 19:16:55 10° NNE
USA 245 3.9 19:13:17 51° NNW 19:13:17 51° NNW 19:15:54 10° NNW
Meteor 1-13 Rocket 4.1 19:14:30 67° E 19:14:34 67° E 19:20:08 10° NNE
STARLINK-1120 4.4 19:11:43 10° NW 19:15:03 49° N 19:15:03 49° N
Cosmos 2221 Rocket 3.7 19:17:13 73° NW 19:17:13 73° NW 19:21:25 10° N
Cosmos 407 Rocket 3.4 19:11:50 10° NNW 19:17:12 81° WSW 19:17:37 74° SSW
Cosmos 724 4.4 19:11:58 10° NNW 19:17:49 62° ENE 19:18:21 59° E
Meteor 2-4 Rocket 3.8 19:16:59 47° SW 19:18:27 68° W 19:23:47 10° N
Cosmos 371 Rocket 3.7 19:21:26 51° NE 19:21:26 51° NE 19:25:09 10° NNE
STARLINK-1131 4.4 19:16:39 10° NW 19:19:49 48° NNW 19:19:49 48° NNW
SPOT 1/Viking Rocket 3.4 19:21:54 78° ENE 19:21:54 78° ENE 19:26:59 10° N
Resurs 01 Rocket 3.3 19:21:42 23° WSW 19:22:47 26° W 19:26:30 10° NW
COSMOS 2406 3.3 19:18:09 10° NNW 19:23:52 63° ENE 19:23:55 63° ENE
SPOT 5 3.4 19:33:14 52° NE 19:33:14 52° NE 19:37:32 10° N
Hubble Space Telescope 3.1 19:29:05 10° W 19:30:11 17° W 19:30:11 17° W
Sich 1 Rocket 4.4 19:32:34 10° NNW 19:36:32 48° WNW 19:36:32 48° WNW
H-2A ROCKET BODY 3.9 19:37:21 49° SSE 19:37:52 49° SE 20:08:49 10° ENE
Cosmos 1190 Rocket 4.3 19:33:54 10° NNW 19:38:45 59° W 19:38:45 59° W
Centaur D-1A AC-32 4.4 19:33:13 10° W 19:40:39 25° SW 19:40:39 25° SW
Cosmos 2279 Rocket 3.8 19:37:40 10° N 19:43:56 90° ENE 19:43:59 89° SSE
Aureole 1 Rocket 4.1 19:41:59 10° NNW 19:46:04 50° W 19:46:04 50° W
Cosmos 1140 Rocket 4.2 19:46:13 10° NNW 19:50:40 47° W 19:50:40 47° W
Okean 2 Rocket 4.5 19:49:57 10° NNW 19:52:51 37° NW 19:52:51 37° NW
ERS-1 Rocket 3.8 20:00:29 48° NW 20:00:29 48° NW 20:04:22 10° NNW
Cosmos 2082 Rocket 3.0 19:58:07 10° N 20:02:27 43° NNE 20:02:27 43° NNE
SeaSat 1 3.6 20:05:25 10° NNE 20:08:33 39° N 20:08:33 39° N
Cosmos 2369 Rocket 4.5 20:15:28 13° NE 20:15:28 13° NE 20:16:11 10° NE
Cosmos 1833 Rocket 3.3 20:06:52 10° NNW 20:11:09 53° NW 20:11:09 53° NW
Cosmos 1943 Rocket 4.0 20:26:07 21° NE 20:26:07 21° NE 20:28:01 10° NNE
Terra 3.8 20:38:31 25° NW 20:38:31 25° NW 20:40:48 10° NNW
Lacrosse 5 3.7 20:42:15 10° NNW 20:44:51 27° N 20:44:51 27° N
USA 215 4.1 20:58:28 42° NE 20:58:40 42° NE 21:04:43 10° NNW
ATLAS 2AS CENTAUR R/B 3.3 21:48:30 65° NNE 21:48:30 65° NNE 21:55:09 10° NNE
Cosmos 2369 Rocket 3.9 21:57:14 27° NNW 21:57:14 27° NNW 22:00:29 10° N
NOSS 3-2 (A) 4.3 21:55:34 10° NNW 22:02:52 69° NNE 22:02:52 69° NNE
Cosmos 1943 Rocket 4.4 22:07:35 18° NW 22:07:35 18° NW 22:10:25 10° NNW
USA 238 DEB 4.3 22:03:11 10° NNW 22:08:57 58° N 22:08:57 58° N
USA 238 4.3 22:03:16 10° NNW 22:09:05 59° N 22:09:05 59° N
COSMOS 2455 4.0 22:28:33 39° N 22:28:33 39° N 22:32:19 10° NNE
VEP-3 4.2 22:39:21 56° SE 22:39:21 56° SE 23:07:41 10° E
NOSS 3-2 (C) 4.3 23:00:23 10° NW 23:07:07 63° WNW 23:07:07 63° WNW
SL-16 R/B 3.3 23:10:56 42° E 23:11:25 43° ENE 23:17:10 10° N
ATLAS CENTAUR R/B 4.2 23:20:47 14° NNW 23:20:47 14° NNW 23:21:47 10° N
ATLAS 3B R/B 3.0 23:17:21 10° NNW 23:24:10 62° ENE 23:25:35 52° ESE
Cosmos 1745 Rocket 4.3 23:28:05 60° NNW 23:28:05 60° NNW 23:33:07 10° N
CENTAUR R/B 3.3 23:20:13 10° NW 23:27:40 60° W 23:27:40 60° W
Cosmos 1697 Rocket 3.7 23:41:27 38° E 23:41:27 38° E 23:46:24 10° NE
Cosmos 1763 Rocket 4.3 23:43:43 45° ENE 23:43:43 45° ENE 23:47:45 10° NNE
Cosmos 2227 Rocket 4.1 23:41:33 10° N 23:46:13 25° ENE 23:50:49 10° ESE
CZ-2D R/B 2.8 23:45:00 10° N 23:48:56 47° NNW 23:48:56 47° NNW
ADEOS II 2.7 23:48:14 10° NNE 23:53:11 49° E 23:53:11 49° E
USA 81 4.4 23:55:39 57° NNW 23:55:39 57° NNW 23:59:53 10° N
